Location: Newark
(44.8699°N, 13.8438°E)
Time: 22:04:33
(UTC+00:00)

N. Korean satellite - Visible Passes

Search period start: 15 September 2019 00:00
Search period end: 25 September 2019 00:00
Orbit: 455 x 508 km, 97.2° (Epoch: 15 September)

Date Brightness Start Highest point End Pass type
(mag) Time Alt. Az. Time Alt. Az. Time Alt. Az.
15 Sep 10.1 04:00:48 10° ENE 04:02:06 12° E 04:03:25 10° ESE visible
18 Sep 9.6 04:17:27 10° NE 04:19:59 19° E 04:22:30 10° SE visible
22 Sep 9.8 04:10:15 10° NE 04:12:25 16° E 04:14:36 10° SE visible
